Tracking 29892 objects as of 21-Nov-2024
HD Live streaming from Space Station
objects crossing your sky now

COSMOS 1275 DEB

Track COSMOS 1275 DEB now!
10-day predictions


NORAD ID: 12703
Int'l Code: 1981-053AX
Perigee: 860.1 km
Apogee: 877.0 km
Inclination: 83.0 °
Period: 102.2 minutes
Semi major axis: 7239 km
RCS: 0.0183 m2 (small)
Launch date: June 4, 1981
Source: Commonwealth of Independent States (former USSR) (CIS)
Launch site: PLESETSK MISSILE AND SPACE COMPLEX (PKMTR)

Note: This is SATELLITE DEBRIS
Your satellite tracking list
Your tracking list is empty




NASA's NSSDC Master Catalog

Two Line Element Set (TLE):
1 12703U 81053AX  24325.63113110  .00002514  00000-0  14316-2 0  9991
2 12703  82.9664 286.3441 0011628 232.5044 127.5075 14.09401294206241
Source of the keplerian elements: AFSPC